,,,PA_Meas_PMT16A,,PR_Meas_QMR101_102,,RH_Meas_QMH101,,SR_Meas_QMS101,,TA_Meas_QMH101,,GenWind,,GenWind,
date,time,status,PA,status,PR,status,RH,status,SR,status,TA,status,DirAvg,status,SpdAvg,
2009-11-17, 00:00:04,VALID,1001.97,VALID,0,VALID,85.3672,VALID,0,VALID,26.3108,VALID,344,VALID,0.471484,
2009-11-17, 00:01:04,VALID,1001.96,VALID,0,VALID,85.3977,VALID,0,VALID,26.3323,VALID,351,VALID,0.538672,
2009-11-17, 00:02:04,VALID,1001.93,VALID,0,VALID,85.3367,VALID,0,VALID,26.3323,VALID,332,VALID,0.742969,
2009-11-17, 00:03:04,VALID,1001.95,VALID,0,VALID,85.474,VALID,0,VALID,26.3323,VALID,355,VALID,0.328906,
2009-11-17, 00:04:04,VALID,1001.92,VALID,0,VALID,85.6266,VALID,0,VALID,26.3323,VALID,354,VALID,0.605859,
2009-11-17, 00:05:04,VALID,1001.89,VALID,0,VALID,85.6342,VALID,0,VALID,26.3128,VALID,350,VALID,0.961328,
2009-11-17, 00:06:04,VALID,1001.9,VALID,0,VALID,85.7639,VALID,0,VALID,26.2933,VALID,355,VALID,0.694922,
2009-11-17, 00:07:04,VALID,1001.88,VALID,0,VALID,85.9088,VALID,0,VALID,26.2739,VALID,1,VALID,0.56875,
2009-11-17, 00:08:04,VALID,1001.82,VALID,0,VALID,85.9927,VALID,0,VALID,26.2544,VALID,347,VALID,0.626172,
2009-11-17, 00:09:04,VALID,1001.78,VALID,0,VALID,86.069,VALID,0,VALID,26.2544,VALID,348,VALID,0.333203,
2009-11-17, 00:10:04,VALID,1001.79,VALID,0,VALID,86.0995,VALID,0,VALID,26.2154,VALID,343,VALID,0.811719,
2009-11-17, 00:11:04,VALID,1001.76,VALID,0,VALID,86.1682,VALID,0,VALID,26.2154,VALID,333,VALID,0.475,
2009-11-17, 00:12:04,VALID,1001.72,VALID,0,VALID,86.214,VALID,0,VALID,26.1745,VALID,324,VALID,0.455859,
2009-11-17, 00:13:04,VALID,1001.68,VALID,0,VALID,86.2979,VALID,0,VALID,26.1959,VALID,346,VALID,0.720703,
2009-11-17, 00:14:04,VALID,1001.68,VALID,0,VALID,86.3132,VALID,0,VALID,26.1959,VALID,345,VALID,1.08047,
2009-11-17, 00:15:04,VALID,1001.65,VALID,0,VALID,86.3589,VALID,0,VALID,26.1765,VALID,336,VALID,0.598828,
2009-11-17, 00:16:04,VALID,1001.6,VALID,0,VALID,86.4428,VALID,0,VALID,26.157,VALID,355,VALID,0.292969,
2009-11-17, 00:17:04,VALID,1001.58,VALID,0,VALID,86.4886,VALID,0,VALID,26.1375,VALID,353,VALID,0.908203,
2009-11-17, 00:18:04,VALID,1001.57,VALID,0,VALID,86.6717,VALID,0,VALID,26.116,VALID,320,VALID,0.25,
2009-11-17, 00:19:04,VALID,1001.55,VALID,0,VALID,86.687,VALID,0,VALID,26.116,VALID,337,VALID,0.109375,
2009-11-17, 00:20:04,VALID,1001.5,VALID,0,VALID,86.6183,VALID,0,VALID,26.116,VALID,12,VALID,0.542969,
2009-11-17, 00:21:04,VALID,1001.5,VALID,0,VALID,86.6488,VALID,0,VALID,26.116,VALID,326,VALID,0.272266,
2009-11-17, 00:22:04,VALID,1001.45,VALID,0,VALID,86.7404,VALID,0,VALID,26.116,VALID,316,VALID,0.329688,
2009-11-17, 00:23:04,VALID,1001.44,VALID,0,VALID,86.9006,VALID,0,VALID,26.118,VALID,357,VALID,0.349609,
2009-11-17, 00:24:04,VALID,1001.4,VALID,0,VALID,86.8167,VALID,0,VALID,26.0985,VALID,357,VALID,0.828906,
2009-11-17, 00:25:04,VALID,1001.39,VALID,0,VALID,86.8395,VALID,0,VALID,26.12,VALID,351,VALID,0.578906,
2009-11-17, 00:26:04,VALID,1001.38,VALID,0,VALID,86.9158,VALID,0,VALID,26.0791,VALID,355,VALID,0.405859,
2009-11-17, 00:27:04,VALID,1001.37,VALID,0,VALID,86.9311,VALID,0,VALID,26.0576,VALID,15,VALID,0.453125,
2009-11-17, 00:28:04,VALID,1001.33,VALID,0,VALID,87.0913,VALID,0,VALID,26.0791,VALID,3,VALID,0.222656,
2009-11-17, 00:29:04,VALID,1001.32,VALID,0,VALID,87.0532,VALID,0,VALID,26.0596,VALID,324,VALID,0.238281,
2009-11-17, 00:30:04,VALID,1001.29,VALID,0,VALID,87.1142,VALID,0,VALID,26.0381,VALID,12,VALID,0.392969,
2009-11-17, 00:31:04,VALID,1001.28,VALID,0,VALID,87.0913,VALID,0,VALID,26.0401,VALID,327,VALID,0.107813,
2009-11-17, 00:32:04,VALID,1001.28,VALID,0,VALID,87.1828,VALID,0,VALID,26.0187,VALID,327,VALID,0.10625,
2009-11-17, 00:33:04,VALID,1001.24,VALID,0,VALID,87.1752,VALID,0,VALID,26.0401,VALID,327,VALID,0.0207031,
2009-11-17, 00:34:04,VALID,1001.23,VALID,0,VALID,87.2057,VALID,0,VALID,26.0206,VALID,339,VALID,0.314063,
2009-11-17, 00:35:04,VALID,1001.22,VALID,0,VALID,87.3125,VALID,0,VALID,25.9992,VALID,339,VALID,0.00664063,
2009-11-17, 00:36:04,VALID,1001.17,VALID,0,VALID,87.3202,VALID,0,VALID,25.9817,VALID,340,VALID,0.381641,
2009-11-17, 00:37:04,VALID,1001.22,VALID,0,VALID,87.1828,VALID,0,VALID,25.9622,VALID,330,VALID,0.669141,
2009-11-17, 00:38:04,VALID,1001.2,VALID,0,VALID,87.1371,VALID,0,VALID,25.9602,VALID,356,VALID,0.489844,
2009-11-17, 00:39:04,VALID,1001.19,VALID,0,VALID,87.2057,VALID,0.100563,VALID,26.0012,VALID,356,VALID,0.217969,
2009-11-17, 00:40:04,VALID,1001.19,VALID,0,VALID,87.2515,VALID,0,VALID,25.9602,VALID,356,VALID,0.190625,
2009-11-17, 00:41:04,VALID,1001.18,VALID,0,VALID,87.3507,VALID,0,VALID,26.0012,VALID,356,VALID,0.137109,
2009-11-17, 00:42:04,VALID,1001.17,VALID,0,VALID,87.3965,VALID,0,VALID,25.9817,VALID,356,VALID,0.0121094,
2009-11-17, 00:43:04,VALID,1001.17,VALID,0,VALID,87.427,VALID,0,VALID,25.9427,VALID,356,VALID,0.371484,
2009-11-17, 00:44:04,VALID,1001.17,VALID,0,VALID,87.4804,VALID,0,VALID,25.9408,VALID,356,VALID,0.202734,
2009-11-17, 00:45:04,VALID,1001.13,VALID,0,VALID,87.5109,VALID,0,VALID,25.9408,VALID,355,VALID,0.347266,
2009-11-17, 00:46:04,VALID,1001.14,VALID,0,VALID,87.488,VALID,0,VALID,25.9408,VALID,355,VALID,0.317187,
2009-11-17, 00:47:04,VALID,1001.13,VALID,0,VALID,87.4499,VALID,0,VALID,25.9427,VALID,337,VALID,0.571094,
2009-11-17, 00:48:04,VALID,1001.11,VALID,0,VALID,87.5185,VALID,0,VALID,25.9408,VALID,340,VALID,0.275781,
2009-11-17, 00:49:04,VALID,1001.11,VALID,0,VALID,87.5109,VALID,0,VALID,25.9622,VALID,353,VALID,0.450391,
2009-11-17, 00:50:04,VALID,1001.08,VALID,0,VALID,87.5719,VALID,0,VALID,25.9232,VALID,344,VALID,0,
2009-11-17, 00:51:04,VALID,1001.07,VALID,0,VALID,87.5948,VALID,0,VALID,25.9232,VALID,346,VALID,0.433984,
2009-11-17, 00:52:04,VALID,1001.08,VALID,0,VALID,87.5719,VALID,0,VALID,25.9232,VALID,350,VALID,0.4375,
2009-11-17, 00:53:04,VALID,1001.07,VALID,0,VALID,87.5795,VALID,0,VALID,25.9232,VALID,347,VALID,0.188672,
2009-11-17, 00:54:04,VALID,1001.1,VALID,0,VALID,87.6329,VALID,0,VALID,25.9232,VALID,347,VALID,0.502344,
2009-11-17, 00:55:04,VALID,1001.06,VALID,0,VALID,87.6635,VALID,0,VALID,25.8823,VALID,348,VALID,0.508984,
2009-11-17, 00:56:04,VALID,1001.05,VALID,0,VALID,87.6863,VALID,0,VALID,25.8823,VALID,348,VALID,0.404687,
2009-11-17, 00:57:04,VALID,1001.04,VALID,0,VALID,87.816,VALID,0.100563,VALID,25.8629,VALID,339,VALID,0.375391,
2009-11-17, 00:58:04,VALID,1001.05,VALID,0,VALID,87.9152,VALID,0,VALID,25.8648,VALID,332,VALID,0.440625,
2009-11-17, 00:59:04,VALID,1001.05,VALID,0,VALID,88.0068,VALID,0,VALID,25.8239,VALID,338,VALID,0.301172,
2009-11-17, 01:00:04,VALID,1001.05,VALID,0,VALID,88.0907,VALID,0,VALID,25.8044,VALID,334,VALID,0.417188,
2009-11-17, 01:01:04,VALID,1001.04,VALID,0,VALID,88.1288,VALID,0,VALID,25.8239,VALID,341,VALID,0.597656,
2009-11-17, 01:02:04,VALID,1001.04,VALID,0,VALID,88.0831,VALID,0,VALID,25.8044,VALID,355,VALID,0.821875,
2009-11-17, 01:03:04,VALID,1001.04,VALID,0,VALID,88.1059,VALID,0,VALID,25.8259,VALID,347,VALID,0.357812,
2009-11-17, 01:04:04,VALID,1001.01,VALID,0,VALID,88.1899,VALID,0,VALID,25.8044,VALID,347,VALID,0.319141,
2009-11-17, 01:05:04,VALID,1001.03,VALID,0,VALID,88.2127,VALID,0,VALID,25.8044,VALID,347,VALID,0.251563,
2009-11-17, 01:06:04,VALID,1001.02,VALID,0,VALID,88.2433,VALID,0,VALID,25.785,VALID,353,VALID,0.301172,
2009-11-17, 01:07:04,VALID,1000.96,VALID,0,VALID,88.3119,VALID,0,VALID,25.7869,VALID,353,VALID,0.205859,
2009-11-17, 01:08:04,VALID,1000.98,VALID,0,VALID,88.4264,VALID,0,VALID,25.7674,VALID,353,VALID,0.298047,
2009-11-17, 01:09:04,VALID,1000.96,VALID,0,VALID,88.3806,VALID,0,VALID,25.7265,VALID,342,VALID,0.344531,
2009-11-17, 01:10:04,VALID,1000.95,VALID,0,VALID,88.3806,VALID,0,VALID,25.7285,VALID,358,VALID,0.45625,
2009-11-17, 01:11:04,VALID,1000.94,VALID,0,VALID,88.3119,VALID,0,VALID,25.7285,VALID,351,VALID,0.357422,
2009-11-17, 01:12:04,VALID,1000.91,VALID,0,VALID,88.2356,VALID,0,VALID,25.7071,VALID,351,VALID,0.634766,
2009-11-17, 01:13:04,VALID,1000.89,VALID,0,VALID,88.0983,VALID,0,VALID,25.7694,VALID,351,VALID,0.319141,
2009-11-17, 01:14:04,VALID,1000.88,VALID,0,VALID,87.9762,VALID,0,VALID,25.7285,VALID,346,VALID,0.379687,
2009-11-17, 01:15:04,VALID,1000.87,VALID,0,VALID,87.9305,VALID,0,VALID,25.746,VALID,346,VALID,0.338281,
2009-11-17, 01:16:04,VALID,1000.85,VALID,0,VALID,87.9,VALID,0,VALID,25.7265,VALID,346,VALID,0.246484,
2009-11-17, 01:17:04,VALID,1000.85,VALID,0,VALID,87.8923,VALID,0,VALID,25.746,VALID,348,VALID,0.550781,
2009-11-17, 01:18:04,VALID,1000.82,VALID,0,VALID,87.7321,VALID,0,VALID,25.7674,VALID,355,VALID,0.469531,
2009-11-17, 01:19:04,VALID,1000.81,VALID,0,VALID,87.6101,VALID,0,VALID,25.7869,VALID,311,VALID,0.308984,
2009-11-17, 01:20:04,VALID,1000.78,VALID,0,VALID,87.4727,VALID,0,VALID,25.8064,VALID,335,VALID,0.981641,
2009-11-17, 01:21:04,VALID,1000.78,VALID,0,VALID,87.3812,VALID,0,VALID,25.8453,VALID,344,VALID,0.247656,
2009-11-17, 01:22:04,VALID,1000.79,VALID,0,VALID,87.3507,VALID,0,VALID,25.8239,VALID,344,VALID,0.482422,
2009-11-17, 01:23:04,VALID,1000.76,VALID,0,VALID,87.3202,VALID,0,VALID,25.8453,VALID,359,VALID,0.844531,
2009-11-17, 01:24:04,VALID,1000.8,VALID,0,VALID,87.3202,VALID,0,VALID,25.8648,VALID,335,VALID,0.648828,
2009-11-17, 01:25:04,VALID,1000.75,VALID,0,VALID,87.3583,VALID,0,VALID,25.8629,VALID,327,VALID,0.454297,
2009-11-17, 01:26:04,VALID,1000.75,VALID,0,VALID,87.282,VALID,0,VALID,25.8843,VALID,346,VALID,0.664453,
2009-11-17, 01:27:04,VALID,1000.75,VALID,0,VALID,87.343,VALID,0,VALID,25.8863,VALID,327,VALID,0.122656,
2009-11-17, 01:28:04,VALID,1000.77,VALID,0,VALID,87.4193,VALID,0,VALID,25.8648,VALID,359,VALID,0.529688,
2009-11-17, 01:29:04,VALID,1000.74,VALID,0,VALID,87.3812,VALID,0,VALID,25.8843,VALID,358,VALID,0.139453,
2009-11-17, 01:30:04,VALID,1000.69,VALID,0,VALID,87.5643,VALID,0,VALID,25.8648,VALID,357,VALID,0,
2009-11-17, 01:31:04,VALID,1000.7,VALID,0,VALID,87.5948,VALID,0,VALID,25.8648,VALID,357,VALID,0.132813,
2009-11-17, 01:32:04,VALID,1000.66,VALID,0,VALID,87.549,VALID,0,VALID,25.8453,VALID,357,VALID,0.230859,
2009-11-17, 01:33:04,VALID,1000.69,VALID,0,VALID,87.6101,VALID,0,VALID,25.8259,VALID,355,VALID,0.123828,
2009-11-17, 01:34:04,VALID,1000.68,VALID,0,VALID,87.5948,VALID,0,VALID,25.8044,VALID,355,VALID,0.13125,
2009-11-17, 01:35:04,VALID,1000.65,VALID,0,VALID,87.5643,VALID,0,VALID,25.8259,VALID,324,VALID,0.256641,
2009-11-17, 01:36:04,VALID,1000.66,VALID,0,VALID,87.4956,VALID,0,VALID,25.8064,VALID,300,VALID,0.146484,
2009-11-17, 01:37:04,VALID,1000.63,VALID,0,VALID,87.6253,VALID,0,VALID,25.8259,VALID,300,VALID,0.118359,
2009-11-17, 01:38:04,VALID,1000.62,VALID,0,VALID,87.5719,VALID,0,VALID,25.8064,VALID,272,VALID,0.283984,
2009-11-17, 01:39:04,VALID,1000.61,VALID,0,VALID,87.4804,VALID,0,VALID,25.8064,VALID,23,VALID,0.579297,
2009-11-17, 01:40:04,VALID,1000.59,VALID,0,VALID,87.4041,VALID,0,VALID,25.8064,VALID,360,VALID,0.526953,
2009-11-17, 01:41:04,VALID,1000.56,VALID,0,VALID,87.3965,VALID,0,VALID,25.7655,VALID,354,VALID,0.646484,
2009-11-17, 01:42:04,VALID,1000.54,VALID,0,VALID,87.3965,VALID,0,VALID,25.7674,VALID,346,VALID,0.810156,
2009-11-17, 01:43:04,VALID,1000.52,VALID,0,VALID,87.5109,VALID,0,VALID,25.7869,VALID,343,VALID,0.284375,
2009-11-17, 01:44:04,VALID,1000.54,VALID,0,VALID,87.4193,VALID,0,VALID,25.7869,VALID,345,VALID,0.446875,
2009-11-17, 01:45:04,VALID,1000.51,VALID,0,VALID,87.3049,VALID,0,VALID,25.7265,VALID,347,VALID,0.619531,
2009-11-17, 01:46:04,VALID,1000.55,VALID,0,VALID,87.3507,VALID,0,VALID,25.748,VALID,348,VALID,0.294141,
2009-11-17, 01:47:04,VALID,1000.55,VALID,0,VALID,87.2591,VALID,0,VALID,25.748,VALID,348,VALID,0.389453,
2009-11-17, 01:48:04,VALID,1000.56,VALID,0,VALID,87.2439,VALID,0,VALID,25.7265,VALID,339,VALID,0.554297,
2009-11-17, 01:49:04,VALID,1000.52,VALID,0,VALID,87.1676,VALID,0,VALID,25.7265,VALID,1,VALID,0.650391,
2009-11-17, 01:50:04,VALID,1000.52,VALID,0,VALID,87.0455,VALID,0,VALID,25.7265,VALID,340,VALID,0.102344,
2009-11-17, 01:51:04,VALID,1000.51,VALID,0,VALID,87.0074,VALID,0,VALID,25.7674,VALID,347,VALID,0.571094,
2009-11-17, 01:52:04,VALID,1000.51,VALID,0,VALID,86.8167,VALID,0,VALID,25.746,VALID,341,VALID,0.741797,
2009-11-17, 01:53:04,VALID,1000.51,VALID,0,VALID,86.8167,VALID,0,VALID,25.7655,VALID,347,VALID,0.512109,
2009-11-17, 01:54:04,VALID,1000.5,VALID,0,VALID,86.5954,VALID,0,VALID,25.7869,VALID,347,VALID,0.708203,
2009-11-17, 01:55:04,VALID,1000.51,VALID,0,VALID,86.481,VALID,0,VALID,25.7869,VALID,349,VALID,0.667578,
2009-11-17, 01:56:04,VALID,1000.54,VALID,0,VALID,86.5496,VALID,0,VALID,25.7869,VALID,349,VALID,0.663281,
2009-11-17, 01:57:04,VALID,1000.51,VALID,0,VALID,86.3208,VALID,0,VALID,25.8064,VALID,353,VALID,0.674609,
2009-11-17, 01:58:04,VALID,1000.53,VALID,0,VALID,86.0309,VALID,0,VALID,25.8044,VALID,355,VALID,0.819922,
2009-11-17, 01:59:04,VALID,1000.52,VALID,0,VALID,85.8631,VALID,0,VALID,25.8259,VALID,351,VALID,0.804688,
2009-11-17, 02:00:04,VALID,1000.53,VALID,0,VALID,85.9775,VALID,0,VALID,25.8453,VALID,348,VALID,0.542188,
2009-11-17, 02:01:04,VALID,1000.52,VALID,0,VALID,85.9241,VALID,0,VALID,25.8453,VALID,341,VALID,0.686328,
2009-11-17, 02:02:04,VALID,1000.5,VALID,0,VALID,85.6647,VALID,0,VALID,25.8648,VALID,330,VALID,0.633203,
2009-11-17, 02:03:04,VALID,1000.51,VALID,0,VALID,85.6647,VALID,0,VALID,25.8648,VALID,350,VALID,0.565234,
2009-11-17, 02:04:04,VALID,1000.49,VALID,0,VALID,85.4663,VALID,0,VALID,25.8648,VALID,354,VALID,0.705859,
2009-11-17, 02:05:04,VALID,1000.48,VALID,0,VALID,85.5732,VALID,0,VALID,25.8648,VALID,17,VALID,0.371875,
2009-11-17, 02:06:04,VALID,1000.46,VALID,0,VALID,85.4511,VALID,0,VALID,25.8648,VALID,347,VALID,0.685156,
2009-11-17, 02:07:04,VALID,1000.45,VALID,0,VALID,85.4282,VALID,0,VALID,25.8648,VALID,351,VALID,0.678516,
2009-11-17, 02:08:04,VALID,1000.42,VALID,0,VALID,85.4053,VALID,0,VALID,25.8629,VALID,339,VALID,0.162109,
2009-11-17, 02:09:04,VALID,1000.42,VALID,0,VALID,85.5274,VALID,0,VALID,25.8843,VALID,339,VALID,0.383984,
2009-11-17, 02:10:04,VALID,1000.43,VALID,0,VALID,85.5884,VALID,0,VALID,25.8434,VALID,307,VALID,0.265234,
2009-11-17, 02:11:04,VALID,1000.45,VALID,0,VALID,85.4511,VALID,0,VALID,25.8629,VALID,356,VALID,0.679297,
2009-11-17, 02:12:04,VALID,1000.47,VALID,0,VALID,85.474,VALID,0,VALID,25.8648,VALID,333,VALID,0.124609,
2009-11-17, 02:13:04,VALID,1000.42,VALID,0,VALID,85.5121,VALID,0,VALID,25.8648,VALID,336,VALID,0.417969,
2009-11-17, 02:14:04,VALID,1000.45,VALID,0,VALID,85.6189,VALID,0,VALID,25.8843,VALID,344,VALID,0.0539063,
2009-11-17, 02:15:04,VALID,1000.49,VALID,0,VALID,85.7791,VALID,0,VALID,25.8648,VALID,344,VALID,0,
2009-11-17, 02:16:04,VALID,1000.49,VALID,0,VALID,85.9012,VALID,0,VALID,25.8453,VALID,344,VALID,0.0046875,
2009-11-17, 02:17:04,VALID,1000.5,VALID,0,VALID,85.6571,VALID,0,VALID,25.8668,VALID,345,VALID,0.377344,
2009-11-17, 02:18:04,VALID,1000.53,VALID,0,VALID,85.802,VALID,0,VALID,25.8259,VALID,344,VALID,0.0222656,
2009-11-17, 02:19:04,VALID,1000.5,VALID,0,VALID,85.8631,VALID,0,VALID,25.8259,VALID,346,VALID,0.258594,
2009-11-17, 02:20:04,VALID,1000.5,VALID,0,VALID,85.8631,VALID,0,VALID,25.8278,VALID,346,VALID,0.280469,
2009-11-17, 02:21:04,VALID,1000.52,VALID,0,VALID,85.7028,VALID,0,VALID,25.8064,VALID,347,VALID,0.251172,
2009-11-17, 02:22:04,VALID,1000.54,VALID,0,VALID,85.7639,VALID,0,VALID,25.8064,VALID,347,VALID,0.00898437,
2009-11-17, 02:23:04,VALID,1000.56,VALID,0,VALID,85.9012,VALID,0,VALID,25.8064,VALID,346,VALID,0.111328,
2009-11-17, 02:24:04,VALID,1000.55,VALID,0,VALID,86.0767,VALID,0,VALID,25.7869,VALID,346,VALID,0.0328125,
2009-11-17, 02:25:04,VALID,1000.54,VALID,0,VALID,85.8707,VALID,0,VALID,25.7674,VALID,348,VALID,0.440234,
2009-11-17, 02:26:04,VALID,1000.57,VALID,0,VALID,85.6189,VALID,0,VALID,25.7869,VALID,346,VALID,0.45,
2009-11-17, 02:27:04,VALID,1000.56,VALID,0,VALID,85.7105,VALID,0,VALID,25.7869,VALID,346,VALID,0.196484,
2009-11-17, 02:28:04,VALID,1000.55,VALID,0,VALID,85.8859,VALID,0,VALID,25.7869,VALID,346,VALID,0,
2009-11-17, 02:29:04,VALID,1000.56,VALID,0,VALID,86.0995,VALID,0,VALID,25.7869,VALID,319,VALID,0.373828,
2009-11-17, 02:30:04,VALID,1000.57,VALID,0,VALID,86.069,VALID,0,VALID,25.7889,VALID,307,VALID,0.173828,
2009-11-17, 02:31:04,VALID,1000.54,VALID,0,VALID,85.9546,VALID,0,VALID,25.8083,VALID,358,VALID,0.689062,
2009-11-17, 02:32:04,VALID,1000.54,VALID,0,VALID,85.9317,VALID,0,VALID,25.7869,VALID,354,VALID,0.427734,
2009-11-17, 02:33:04,VALID,1000.53,VALID,0,VALID,85.9699,VALID,0,VALID,25.7889,VALID,296,VALID,0.73125,
2009-11-17, 02:34:04,VALID,1000.49,VALID,0,VALID,85.9241,VALID,0,VALID,25.7674,VALID,294,VALID,0.519531,
2009-11-17, 02:35:04,VALID,1000.51,VALID,0,VALID,85.9775,VALID,0,VALID,25.7869,VALID,271,VALID,0.311719,
2009-11-17, 02:36:04,VALID,1000.48,VALID,0,VALID,86.1758,VALID,0,VALID,25.7869,VALID,318,VALID,0.111328,
2009-11-17, 02:37:04,VALID,1000.46,VALID,0,VALID,86.0614,VALID,0,VALID,25.7869,VALID,332,VALID,0.485156,
2009-11-17, 02:38:04,VALID,1000.48,VALID,0,VALID,86.1911,VALID,0,VALID,25.748,VALID,332,VALID,0.0210938,
2009-11-17, 02:39:04,VALID,1000.45,VALID,0,VALID,86.2216,VALID,0,VALID,25.7674,VALID,318,VALID,0.425781,
2009-11-17, 02:40:04,VALID,1000.46,VALID,0,VALID,86.1987,VALID,0,VALID,25.748,VALID,301,VALID,0.542188,
2009-11-17, 02:41:04,VALID,1000.46,VALID,0,VALID,86.2903,VALID,0,VALID,25.7674,VALID,301,VALID,0,
2009-11-17, 02:42:04,VALID,1000.46,VALID,0,VALID,86.3589,VALID,0,VALID,25.7674,VALID,301,VALID,0,
2009-11-17, 02:43:04,VALID,1000.44,VALID,0,VALID,86.5725,VALID,0,VALID,25.7674,VALID,301,VALID,0,
2009-11-17, 02:44:04,VALID,1000.44,VALID,0,VALID,86.6641,VALID,0,VALID,25.748,VALID,301,VALID,0,
2009-11-17, 02:45:04,VALID,1000.46,VALID,0,VALID,86.6717,VALID,0,VALID,25.7071,VALID,301,VALID,0.0722656,
2009-11-17, 02:46:04,VALID,1000.45,VALID,0,VALID,86.7556,VALID,0,VALID,25.709,VALID,301,VALID,0.169141,
2009-11-17, 02:47:04,VALID,1000.45,VALID,0,VALID,86.8472,VALID,0,VALID,25.709,VALID,301,VALID,0,
2009-11-17, 02:48:04,VALID,1000.47,VALID,0,VALID,86.8929,VALID,0,VALID,25.6895,VALID,301,VALID,0.00117188,
2009-11-17, 02:49:04,VALID,1000.44,VALID,0,VALID,86.8853,VALID,0,VALID,25.67,VALID,301,VALID,0.239063,
2009-11-17, 02:50:04,VALID,1000.47,VALID,0,VALID,86.8243,VALID,0,VALID,25.6681,VALID,301,VALID,0,
2009-11-17, 02:51:04,VALID,1000.47,VALID,0,VALID,86.8395,VALID,0,VALID,25.6915,VALID,302,VALID,0.242188,
2009-11-17, 02:52:04,VALID,1000.46,VALID,0,VALID,86.7938,VALID,0,VALID,25.672,VALID,280,VALID,0.696484,
2009-11-17, 02:53:04,VALID,1000.47,VALID,0,VALID,86.6488,VALID,0,VALID,25.67,VALID,283,VALID,0.236328,
2009-11-17, 02:54:04,VALID,1000.49,VALID,0,VALID,86.7633,VALID,0,VALID,25.67,VALID,283,VALID,0.209766,
2009-11-17, 02:55:04,VALID,1000.48,VALID,0,VALID,86.9692,VALID,0,VALID,25.67,VALID,283,VALID,0.221484,
2009-11-17, 02:56:04,VALID,1000.46,VALID,0,VALID,87.0074,VALID,0,VALID,25.67,VALID,283,VALID,0,
2009-11-17, 02:57:04,VALID,1000.45,VALID,0,VALID,86.9692,VALID,0,VALID,25.6506,VALID,282,VALID,0.511328,
2009-11-17, 02:58:04,VALID,1000.46,VALID,0,VALID,87.2134,VALID,0,VALID,25.6506,VALID,317,VALID,0.454688,
2009-11-17, 02:59:04,VALID,1000.5,VALID,0,VALID,87.1142,VALID,0,VALID,25.6311,VALID,342,VALID,0.0128906,
2009-11-17, 03:00:04,VALID,1000.49,VALID,0,VALID,87.3965,VALID,0,VALID,25.5902,VALID,351,VALID,0.551953,
2009-11-17, 03:01:04,VALID,1000.49,VALID,0,VALID,87.3202,VALID,0,VALID,25.6116,VALID,351,VALID,0.552344,
2009-11-17, 03:02:04,VALID,1000.48,VALID,0,VALID,87.3202,VALID,0,VALID,25.5727,VALID,351,VALID,0.322266,
2009-11-17, 03:03:05,VALID,1000.49,VALID,0,VALID,87.4956,VALID,0,VALID,25.5921,VALID,357,VALID,0.317969,
2009-11-17, 03:04:05,VALID,1000.48,VALID,0,VALID,87.6177,VALID,0,VALID,25.5921,VALID,357,VALID,0.317969,
2009-11-17, 03:05:05,VALID,1000.48,VALID,0,VALID,87.7321,VALID,0,VALID,25.5921,VALID,357,VALID,0.172656,
2009-11-17, 03:06:05,VALID,1000.45,VALID,0,VALID,87.6711,VALID,0.100563,VALID,25.5513,VALID,351,VALID,0.314844,
2009-11-17, 03:07:05,VALID,1000.42,VALID,0,VALID,87.694,VALID,0,VALID,25.5532,VALID,334,VALID,0.372266,
2009-11-17, 03:08:05,VALID,1000.4,VALID,0,VALID,87.7016,VALID,0,VALID,25.5318,VALID,350,VALID,0.645312,
2009-11-17, 03:09:05,VALID,1000.41,VALID,0,VALID,87.7092,VALID,0,VALID,25.5123,VALID,350,VALID,0.75625,
2009-11-17, 03:10:05,VALID,1000.38,VALID,0,VALID,87.4956,VALID,0,VALID,25.5318,VALID,341,VALID,0.490625,
2009-11-17, 03:11:05,VALID,1000.4,VALID,0,VALID,87.6024,VALID,0,VALID,25.5727,VALID,347,VALID,0.396094,
2009-11-17, 03:12:05,VALID,1000.39,VALID,0,VALID,87.5948,VALID,0,VALID,25.5532,VALID,303,VALID,0.373828,
2009-11-17, 03:13:05,VALID,1000.41,VALID,0,VALID,87.816,VALID,0,VALID,25.5532,VALID,303,VALID,0.00585938,
2009-11-17, 03:14:05,VALID,1000.41,VALID,0,VALID,87.9534,VALID,0,VALID,25.5727,VALID,303,VALID,0,
2009-11-17, 03:15:05,VALID,1000.4,VALID,0,VALID,87.8771,VALID,0,VALID,25.5532,VALID,352,VALID,0.322656,
2009-11-17, 03:16:05,VALID,1000.41,VALID,0,VALID,87.7932,VALID,0,VALID,25.5727,VALID,352,VALID,0.34375,
2009-11-17, 03:17:05,VALID,1000.44,VALID,0,VALID,87.7703,VALID,0,VALID,25.5921,VALID,352,VALID,0.340234,
2009-11-17, 03:18:05,VALID,1000.42,VALID,0,VALID,87.694,VALID,0,VALID,25.5921,VALID,352,VALID,0.48125,
2009-11-17, 03:19:05,VALID,1000.41,VALID,0,VALID,87.755,VALID,0,VALID,25.6116,VALID,358,VALID,0.380469,
2009-11-17, 03:20:05,VALID,1000.38,VALID,0,VALID,87.7245,VALID,0,VALID,25.6311,VALID,337,VALID,0.583984,
2009-11-17, 03:21:05,VALID,1000.37,VALID,0,VALID,87.7092,VALID,0,VALID,25.6506,VALID,336,VALID,0.221484,
2009-11-17, 03:22:05,VALID,1000.37,VALID,0,VALID,87.7169,VALID,0,VALID,25.6292,VALID,336,VALID,0.170312,
2009-11-17, 03:23:05,VALID,1000.36,VALID,0,VALID,87.7398,VALID,0,VALID,25.6506,VALID,336,VALID,0.00273437,
2009-11-17, 03:24:05,VALID,1000.34,VALID,0,VALID,87.7169,VALID,0,VALID,25.6486,VALID,281,VALID,0.213281,
2009-11-17, 03:25:05,VALID,1000.36,VALID,0,VALID,87.5795,VALID,0,VALID,25.6486,VALID,356,VALID,1.16289,
2009-11-17, 03:26:05,VALID,1000.36,VALID,0,VALID,87.4041,VALID,0,VALID,25.7285,VALID,355,VALID,0.626953,
2009-11-17, 03:27:05,VALID,1000.33,VALID,0,VALID,87.2057,VALID,0,VALID,25.7265,VALID,357,VALID,0.129688,
2009-11-17, 03:28:05,VALID,1000.36,VALID,0,VALID,87.1371,VALID,0,VALID,25.7655,VALID,358,VALID,0,
2009-11-17, 03:29:05,VALID,1000.34,VALID,0,VALID,87.0532,VALID,0,VALID,25.7674,VALID,358,VALID,0.216406,
2009-11-17, 03:30:05,VALID,1000.31,VALID,0,VALID,87.1294,VALID,0,VALID,25.785,VALID,358,VALID,0.107813,
2009-11-17, 03:31:05,VALID,1000.28,VALID,0,VALID,87.0608,VALID,0.100563,VALID,25.785,VALID,358,VALID,0.263672,
2009-11-17, 03:32:05,VALID,1000.3,VALID,0,VALID,86.9616,VALID,0,VALID,25.785,VALID,356,VALID,0.781641,
2009-11-17, 03:33:05,VALID,1000.23,VALID,0,VALID,86.6793,VALID,0,VALID,25.8259,VALID,339,VALID,0.555078,
2009-11-17, 03:34:05,VALID,1000.24,VALID,0,VALID,86.7861,VALID,0.100563,VALID,25.8239,VALID,349,VALID,0.716797,
2009-11-17, 03:35:05,VALID,1000.25,VALID,0,VALID,86.6412,VALID,0,VALID,25.8259,VALID,329,VALID,0.726953,
2009-11-17, 03:36:05,VALID,1000.22,VALID,0,VALID,86.542,VALID,0,VALID,25.8453,VALID,348,VALID,0.260547,
2009-11-17, 03:37:05,VALID,1000.25,VALID,0,VALID,86.6565,VALID,0,VALID,25.8239,VALID,339,VALID,0.4875,
2009-11-17, 03:38:05,VALID,1000.24,VALID,0,VALID,86.7709,VALID,0,VALID,25.8044,VALID,322,VALID,0.549219,
2009-11-17, 03:39:05,VALID,1000.26,VALID,0,VALID,86.8701,VALID,0,VALID,25.8044,VALID,329,VALID,0.459766,
2009-11-17, 03:40:05,VALID,1000.28,VALID,0,VALID,86.8395,VALID,0,VALID,25.785,VALID,352,VALID,0.515625,
2009-11-17, 03:41:05,VALID,1000.29,VALID,0,VALID,86.9616,VALID,0,VALID,25.8064,VALID,349,VALID,0.38125,
2009-11-17, 03:42:05,VALID,1000.3,VALID,0,VALID,86.8853,VALID,0,VALID,25.8044,VALID,354,VALID,0.904688,
2009-11-17, 03:43:05,VALID,1000.32,VALID,0,VALID,86.7251,VALID,0,VALID,25.8629,VALID,347,VALID,0.624609,
2009-11-17, 03:44:05,VALID,1000.31,VALID,0,VALID,86.542,VALID,0,VALID,25.8823,VALID,342,VALID,0.6,
2009-11-17, 03:45:05,VALID,1000.35,VALID,0,VALID,86.5496,VALID,0,VALID,25.9213,VALID,353,VALID,0.576563,